Location: Knowlton
(51.2333°N, 1.2667°E)
Time: 04:52:40
(UTC+00:00)

Cosmos 407 Rocket - Pass Details

Date: 18 April 2021
Orbit: 743 x 787 km, 74.0° (Epoch: 06 May)

Event Time Altitude Azimuth Distance (km) Brightness Sun altitude
Exits shadow 20:53:35 16° 180° (S) 1,903 5.2 -16.4°
Maximum altitude 20:57:35 53° 108° (ESE) 918 3.6 -16.9°
Drops below altitude 10° 21:02:37 10° 32° (NNE) 2,292 6.1 -17.4°
Sets 21:05:03 0° 28° (NNE) 3,228 7.0 -17.7°
